| time (UTC) | temp F | wind direction | speed MPH | gust MPH | rain 1hr in | rain 24hr in | rain mn in | humidity % | barometer mb |
| 20260504040310 | 53 | 0 | 0.0 | 1.0 | 0.00 | 0.00 | 0.00 | 57 | 1017.2 |
| 20260504035252 | 54 | 0 | 0.0 | 0.0 | 0.00 | 0.00 | 0.00 | 56 | 1017.0 |
| 20260504034233 | 53 | 0 | 2.0 | 8.0 | 0.00 | 0.00 | 0.00 | 59 | 1017.2 |
| 20260504033254 | 53 | 0 | 1.0 | 8.0 | 0.00 | 0.00 | 0.00 | 58 | 1017.2 |
| 20260504032317 | 53 | 0 | 1.0 | 4.0 | 0.00 | 0.00 | 0.00 | 57 | 1017.4 |
| 20260504031257 | 54 | 0 | 1.0 | 6.0 | 0.00 | 0.00 | 0.00 | 56 | 1017.4 |
| 20260504030322 | 54 | 184 | 1.0 | 6.0 | 0.00 | 0.00 | 0.00 | 55 | 1017.4 |
| 20260504025307 | 54 | 162 | 1.0 | 0.0 | 0.00 | 0.00 | 0.00 | 57 | 1016.9 |
| 20260504024244 | 55 | 173 | 2.0 | 13.0 | 0.00 | 0.00 | 0.00 | 57 | 1017.0 |
| 20260504023258 | 54 | 263 | 2.0 | 6.0 | 0.00 | 0.00 | 0.00 | 60 | 1017.0 |
| 20260504022237 | 54 | 217 | 1.0 | 4.0 | 0.00 | 0.00 | 0.00 | 59 | 1017.0 |
| 20260504021225 | 54 | 225 | 0.0 | 4.0 | 0.00 | 0.00 | 0.00 | 59 | 1017.1 |
| 20260504015104 | 55 | 264 | 0.0 | 4.0 | 0.00 | 0.00 | 0.00 | 56 | 1017.0 |
| 20260504012940 | 55 | 221 | 0.0 | 0.0 | 0.00 | 0.00 | 0.00 | 55 | 1016.9 |
| 20260504010738 | 55 | 226 | 0.0 | 0.0 | 0.00 | 0.00 | 0.00 | 55 | 1016.8 |
| 20260504005735 | 56 | 212 | 0.0 | 1.0 | 0.00 | 0.00 | 0.00 | 55 | 1016.5 |
| 20260504004710 | 56 | 225 | 1.0 | 3.0 | 0.00 | 0.00 | 0.00 | 57 | 1016.5 |
| 20260504003715 | 56 | 169 | 0.0 | 0.0 | 0.00 | 0.00 | 0.00 | 58 | 1016.6 |
| 20260504001519 | 57 | 138 | 0.0 | 0.0 | 0.00 | 0.00 | 0.00 | 59 | 1016.6 |
| 20260504000505 | 57 | 138 | 0.0 | 0.0 | 0.00 | 0.00 | 0.00 | 57 | 1016.6 |
| 20260503234341 | 58 | 138 | 1.0 | 3.0 | 0.00 | 0.00 | 0.00 | 55 | 1016.6 |
| 20260503233336 | 59 | 0 | 1.0 | 4.0 | 0.00 | 0.00 | 0.00 | 55 | 1016.6 |
| 20260503232350 | 59 | 0 | 0.0 | 4.0 | 0.00 | 0.00 | 0.00 | 54 | 1016.8 |
| 20260503231341 | 60 | 0 | 0.0 | 0.0 | 0.00 | 0.00 | 0.00 | 52 | 1016.9 |
| 20260503225254 | 61 | 0 | 1.0 | 9.0 | 0.00 | 0.00 | 0.00 | 51 | 1016.9 |
| 20260503224257 | 61 | 144 | 0.0 | 0.0 | 0.00 | 0.00 | 0.00 | 53 | 1016.9 |
| 20260503223238 | 61 | 234 | 1.0 | 8.0 | 0.00 | 0.00 | 0.00 | 52 | 1016.9 |
| 20260503222216 | 61 | 189 | 2.0 | 8.0 | 0.00 | 0.00 | 0.00 | 51 | 1016.9 |
| 20260503221222 | 62 | 153 | 2.0 | 8.0 | 0.00 | 0.00 | 0.00 | 49 | 1017.0 |
| 20260503220149 | 62 | 178 | 2.0 | 9.0 | 0.00 | 0.00 | 0.00 | 47 | 1017.0 |
| 20260503215150 | 63 | 175 | 1.0 | 9.0 | 0.00 | 0.00 | 0.00 | 49 | 1017.1 |
| 20260503214126 | 63 | 148 | 0.0 | 8.0 | 0.00 | 0.00 | 0.00 | 47 | 1017.4 |
| 20260503213140 | 62 | 132 | 1.0 | 9.0 | 0.00 | 0.00 | 0.00 | 46 | 1017.4 |
| 20260503212148 | 62 | 324 | 2.0 | 9.0 | 0.00 | 0.00 | 0.00 | 46 | 1017.5 |
| 20260503211133 | 63 | 41 | 2.0 | 9.0 | 0.00 | 0.00 | 0.00 | 45 | 1017.7 |
| 20260503210144 | 63 | 136 | 2.0 | 9.0 | 0.00 | 0.00 | 0.00 | 44 | 1017.7 |
| 20260503205138 | 62 | 121 | 1.0 | 11.0 | 0.00 | 0.00 | 0.00 | 45 | 1018.0 |
| 20260503204127 | 63 | 124 | 2.0 | 11.0 | 0.00 | 0.00 | 0.00 | 43 | 1018.1 |
| 20260503203150 | 63 | 150 | 1.0 | 11.0 | 0.00 | 0.00 | 0.00 | 42 | 1018.1 |
| 20260503202155 | 62 | 154 | 2.0 | 11.0 | 0.00 | 0.00 | 0.00 | 40 | 1018.2 |
| 20260503201129 | 63 | 201 | 2.0 | 9.0 | 0.00 | 0.00 | 0.00 | 41 | 1018.5 |
| 20260503200124 | 62 | 190 | 2.0 | 11.0 | 0.00 | 0.00 | 0.00 | 43 | 1018.5 |
| 20260503195137 | 62 | 67 | 2.0 | 11.0 | 0.00 | 0.00 | 0.00 | 42 | 1018.6 |
| 20260503193014 | 62 | 165 | 2.0 | 8.0 | 0.00 | 0.00 | 0.00 | 39 | 1018.8 |
| 20260503191957 | 61 | 111 | 1.0 | 8.0 | 0.00 | 0.00 | 0.00 | 37 | 1019.1 |
| 20260503191017 | 62 | 224 | 2.0 | 11.0 | 0.00 | 0.00 | 0.00 | 42 | 1019.2 |
| 20260503190010 | 63 | 200 | 2.0 | 11.0 | 0.00 | 0.00 | 0.00 | 47 | 1019.2 |
| 20260503183839 | 61 | 212 | 2.0 | 8.0 | 0.00 | 0.00 | 0.00 | 45 | 1019.2 |
| 20260503182828 | 59 | 188 | 2.0 | 8.0 | 0.00 | 0.00 | 0.00 | 47 | 1019.6 |
| 20260503181825 | 59 | 242 | 2.0 | 11.0 | 0.00 | 0.00 | 0.00 | 49 | 1019.6 |
| 20260503180823 | 58 | 167 | 2.0 | 11.0 | 0.00 | 0.00 | 0.00 | 47 | 1019.7 |
| 20260503173600 | 58 | 142 | 2.0 | 9.0 | 0.00 | 0.00 | 0.00 | 52 | 1020.1 |
| 20260503172539 | 56 | 194 | 2.0 | 9.0 | 0.00 | 0.00 | 0.00 | 50 | 1020.3 |
| 20260503171543 | 55 | 31 | 1.0 | 9.0 | 0.00 | 0.00 | 0.00 | 51 | 1020.3 |
| 20260503170547 | 55 | 308 | 2.0 | 9.0 | 0.00 | 0.00 | 0.00 | 51 | 1020.3 |
| 20260503150404 | 51 | 122 | 0.0 | 6.0 | 0.00 | 0.00 | 0.00 | 58 | 1020.8 |
| 20260503140237 | 49 | 0 | 1.0 | 6.0 | 0.00 | 0.00 | 0.00 | 66 | 1020.7 |
| 20260503131158 | 47 | 0 | 1.0 | 4.0 | 0.00 | 0.00 | 0.00 | 66 | 1020.1 |
| 20260503130148 | 47 | 0 | 1.0 | 4.0 | 0.00 | 0.00 | 0.00 | 69 | 1020.1 |
| 20260503120106 | 45 | 0 | 0.0 | 4.0 | 0.00 | 0.00 | 0.00 | 74 | 1019.8 |
| 20260503072512 | 44 | 0 | 0.0 | 3.0 | 0.00 | 0.00 | 0.00 | 83 | 1017.6 |
| 20260503071506 | 44 | 0 | 1.0 | 3.0 | 0.00 | 0.00 | 0.00 | 82 | 1017.6 |
| 20260503070448 | 44 | 0 | 0.0 | 3.0 | 0.00 | 0.00 | 0.00 | 82 | 1017.4 |
| 20260503053305 | 45 | 0 | 0.0 | 0.0 | 0.00 | 0.00 | 0.00 | 78 | 1017.2 |
| 20260503052300 | 45 | 0 | 0.0 | 0.0 | 0.00 | 0.00 | 0.00 | 77 | 1017.1 |
| 20260503051309 | 45 | 0 | 0.0 | 3.0 | 0.00 | 0.00 | 0.00 | 77 | 1017.0 |
| 20260503050309 | 45 | 0 | 0.0 | 0.0 | 0.00 | 0.00 | 0.00 | 76 | 1017.0 |
| 20260503045243 | 46 | 0 | 0.0 | 0.0 | 0.00 | 0.00 | 0.00 | 75 | 1016.9 |
| 20260503044223 | 45 | 0 | 0.0 | 0.0 | 0.00 | 0.00 | 0.00 | 75 | 1016.7 |
| 20260503043222 | 46 | 0 | 0.0 | 0.0 | 0.00 | 0.00 | 0.00 | 74 | 1016.7 |
| 20260503042220 | 46 | 0 | 0.0 | 0.0 | 0.00 | 0.00 | 0.00 | 73 | 1016.7 |